| time (UTC) | temp F | wind direction | speed knots | gust knots | rain 1hr in | rain 24hr in | rain mn in | humidity % | barometer mb |
| 20260505051031 | 59 | 192 | 5.2 | 6.1 | 0.00 | 0.00 | 0.00 | 58 | 1004.4 |
| 20260505041031 | 60 | 196 | 7.0 | 9.6 | 0.00 | 0.00 | 0.00 | 56 | 1004.4 |
| 20260505040031 | 60 | 190 | 3.5 | 12.2 | 0.00 | 0.00 | 0.00 | 55 | 1004.3 |
| 20260505034031 | 59 | 188 | 4.3 | 6.1 | 0.00 | 0.00 | 0.00 | 56 | 1004.1 |
| 20260505033031 | 60 | 190 | 3.5 | 7.0 | 0.00 | 0.00 | 0.00 | 54 | 1004.2 |
| 20260505031031 | 60 | 192 | 2.6 | 7.0 | 0.00 | 0.00 | 0.00 | 54 | 1004.2 |
| 20260505030030 | 61 | 196 | 3.5 | 8.7 | 0.00 | 0.00 | 0.00 | 52 | 1004.3 |
| 20260505025031 | 60 | 194 | 2.6 | 7.0 | 0.00 | 0.00 | 0.00 | 53 | 1004.3 |
| 20260505024030 | 61 | 193 | 6.1 | 7.0 | 0.00 | 0.00 | 0.00 | 52 | 1004.2 |
| 20260505023030 | 61 | 194 | 3.5 | 7.0 | 0.00 | 0.00 | 0.00 | 52 | 1004.3 |
| 20260505021030 | 63 | 186 | 1.7 | 8.7 | 0.00 | 0.00 | 0.00 | 48 | 1004.5 |
| 20260505020030 | 63 | 180 | 3.5 | 7.0 | 0.00 | 0.00 | 0.00 | 48 | 1004.4 |
| 20260505015030 | 63 | 183 | 1.7 | 7.0 | 0.00 | 0.00 | 0.00 | 47 | 1004.2 |
| 20260505014030 | 63 | 180 | 0.9 | 8.7 | 0.00 | 0.00 | 0.00 | 47 | 1004.2 |
| 20260505012030 | 59 | 194 | 1.7 | 3.5 | 0.00 | 0.00 | 0.00 | 52 | 1004.1 |
| 20260505011030 | 59 | 195 | 2.6 | 2.6 | 0.00 | 0.00 | 0.00 | 52 | 1004.0 |
| 20260505010030 | 59 | 195 | 0.0 | 0.0 | 0.00 | 0.00 | 0.00 | 52 | 1004.0 |
| 20260505004030 | 60 | 195 | 0.0 | 0.0 | 0.00 | 0.00 | 0.00 | 50 | 1003.6 |
| 20260505003030 | 62 | 195 | 0.0 | 0.9 | 0.00 | 0.00 | 0.00 | 46 | 1003.7 |
| 20260505002030 | 62 | 195 | 0.0 | 0.9 | 0.00 | 0.00 | 0.00 | 45 | 1003.6 |
| 20260505001030 | 62 | 195 | 0.0 | 2.6 | 0.00 | 0.00 | 0.00 | 46 | 1003.7 |
| 20260505000030 | 63 | 195 | 1.7 | 2.6 | 0.00 | 0.00 | 0.00 | 44 | 1003.6 |
| 20260504235029 | 64 | 195 | 0.9 | 3.5 | 0.00 | 0.00 | 0.00 | 45 | 1003.5 |
| 20260504234029 | 64 | 195 | 2.6 | 4.3 | 0.00 | 0.00 | 0.00 | 43 | 1003.5 |
| 20260504233029 | 66 | 195 | 3.5 | 5.2 | 0.00 | 0.00 | 0.00 | 41 | 1003.4 |
| 20260504232029 | 66 | 196 | 3.5 | 5.2 | 0.00 | 0.00 | 0.00 | 40 | 1003.4 |
| 20260504231029 | 67 | 196 | 3.5 | 10.4 | 0.00 | 0.00 | 0.00 | 38 | 1003.4 |
| 20260504230059 | 68 | 195 | 7.8 | 8.7 | 0.00 | 0.00 | 0.00 | 35 | 1003.6 |
| 20260504225029 | 68 | 198 | 3.5 | 8.7 | 0.00 | 0.00 | 0.00 | 37 | 1003.6 |
| 20260504224029 | 69 | 202 | 3.5 | 10.4 | 0.00 | 0.00 | 0.00 | 35 | 1003.7 |
| 20260504223029 | 69 | 191 | 9.6 | 9.6 | 0.00 | 0.00 | 0.00 | 35 | 1003.8 |
| 20260504222029 | 70 | 212 | 7.8 | 9.6 | 0.00 | 0.00 | 0.00 | 34 | 1003.8 |
| 20260504221029 | 70 | 215 | 7.8 | 11.3 | 0.00 | 0.00 | 0.00 | 32 | 1003.8 |
| 20260504220029 | 70 | 223 | 7.0 | 11.3 | 0.00 | 0.00 | 0.00 | 32 | 1003.8 |
| 20260504215029 | 70 | 231 | 5.2 | 13.9 | 0.00 | 0.00 | 0.00 | 34 | 1003.8 |
| 20260504214029 | 69 | 214 | 6.1 | 15.6 | 0.00 | 0.00 | 0.00 | 38 | 1003.9 |
| 20260504213029 | 69 | 203 | 7.8 | 20.0 | 0.00 | 0.00 | 0.00 | 36 | 1004.0 |
| 20260504212029 | 69 | 158 | 15.6 | 20.0 | 0.00 | 0.00 | 0.00 | 33 | 1004.0 |
| 20260504211059 | 69 | 244 | 6.1 | 15.6 | 0.00 | 0.00 | 0.00 | 35 | 1004.1 |
| 20260504210029 | 69 | 219 | 11.3 | 18.2 | 0.00 | 0.00 | 0.00 | 36 | 1004.1 |
| 20260504205029 | 70 | 223 | 7.0 | 15.6 | 0.00 | 0.00 | 0.00 | 36 | 1004.0 |
| 20260504203029 | 69 | 213 | 9.6 | 18.2 | 0.00 | 0.00 | 0.00 | 35 | 1004.3 |
| 20260504201028 | 69 | 220 | 11.3 | 15.6 | 0.00 | 0.00 | 0.00 | 39 | 1004.6 |
| 20260504200029 | 69 | 219 | 9.6 | 15.6 | 0.00 | 0.00 | 0.00 | 37 | 1004.7 |
| 20260504195029 | 68 | 221 | 10.4 | 16.5 | 0.00 | 0.00 | 0.00 | 40 | 1004.7 |
| 20260504192028 | 68 | 211 | 4.3 | 21.7 | 0.00 | 0.00 | 0.00 | 43 | 1005.1 |
| 20260504191028 | 67 | 226 | 6.1 | 21.7 | 0.00 | 0.00 | 0.00 | 40 | 1005.3 |
| 20260504190058 | 68 | 222 | 8.7 | 20.0 | 0.00 | 0.00 | 0.00 | 40 | 1005.4 |
| 20260504185028 | 67 | 204 | 8.7 | 18.2 | 0.00 | 0.00 | 0.00 | 42 | 1005.5 |
| 20260504184028 | 66 | 212 | 10.4 | 17.4 | 0.00 | 0.00 | 0.00 | 41 | 1005.5 |
| 20260504183058 | 67 | 250 | 8.7 | 15.6 | 0.00 | 0.00 | 0.00 | 45 | 1005.7 |
| 20260504182028 | 66 | 252 | 6.1 | 18.2 | 0.00 | 0.00 | 0.00 | 43 | 1005.6 |
| 20260504181028 | 66 | 273 | 15.6 | 19.1 | 0.00 | 0.00 | 0.00 | 45 | 1005.6 |
| 20260504180058 | 66 | 236 | 8.7 | 19.1 | 0.00 | 0.00 | 0.00 | 45 | 1005.8 |
| 20260504175058 | 65 | 227 | 7.8 | 19.1 | 0.00 | 0.00 | 0.00 | 46 | 1006.2 |
| 20260504174028 | 65 | 216 | 7.0 | 20.0 | 0.00 | 0.00 | 0.00 | 50 | 1006.1 |
| 20260504173059 | 64 | 222 | 11.3 | 20.0 | 0.00 | 0.00 | 0.00 | 46 | 1006.0 |
| 20260504172028 | 64 | 211 | 19.1 | 20.0 | 0.00 | 0.00 | 0.00 | 46 | 1006.1 |
| 20260504171028 | 64 | 188 | 12.2 | 15.6 | 0.00 | 0.00 | 0.00 | 49 | 1006.0 |
| 20260504151027 | 58 | 211 | 7.0 | 17.4 | 0.00 | 0.00 | 0.00 | 51 | 1007.0 |
| 20260504081026 | 45 | 200 | 5.2 | 5.2 | 0.00 | 0.00 | 0.00 | 62 | 1008.0 |